Location: Belmont
(13.0833°N, 59.6000°W)
Time: 23:51:34
(UTC+00:00)

CZ-4 R/B - Pass Details

Date: 17 September 2019
Orbit: 532 x 599 km, 97.8° (Epoch: 20 October)

Event Time Altitude Azimuth Distance (km) Brightness Sun altitude
Rises 22:45:18 0° 176° (S) 2,664 4.7 -12.3°
Reaches altitude 10° 22:47:25 10° 180° (S) 1,773 3.9 -12.8°
Maximum altitude 22:51:10 56° 259° (W) 631 1.9 -13.7°
Drops below altitude 10° 22:54:57 10° 338° (NNW) 1,782 4.3 -14.6°
Sets 22:57:05 0° 343° (NNW) 2,679 5.1 -15.1°
